GFSFLT2_sfc_wetblb_000.txt.gz
Wetbulb
51.59 52.17 49.85 46.66 43.27 47.18 42.43 41.73 40.29 42.46 47.21 53.83 56.46 58.13 58.87 59.18 60.75 62.27 64.03 65.19 65.69 66.78 67.94 69.40 70.72 71.46 71.86 69.76 68.43 66.68 64.93 63.93
51.71 50.96 50.73 49.39 49.54 43.15 40.62 36.68 34.99 41.16 43.54 45.63 52.83 55.47 57.75 58.05 57.98 59.84 63.53 65.08 65.84 66.54 67.46 69.77 70.48 71.57 72.35 70.29 68.74 67.31 66.51 64.87
47.64 45.97 46.32 47.62 45.21 44.03 43.62 41.20 37.71 36.66 41.14 50.13 55.17 57.03 57.35 58.69 60.28 58.71 61.76 63.84 65.54 66.36 67.48 69.71 70.48 71.24 71.77 70.35 69.40 67.81 67.28 65.99
45.18 49.90 50.60 49.63 47.13 44.78 41.06 39.48 39.65 40.25 42.54 54.20 55.41 56.28 59.32 59.87 60.96 59.86 60.88 63.43 64.99 65.98 66.61 68.46 69.20 70.61 71.01 70.77 69.76 69.02 68.44 66.84
41.94 44.69 46.80 47.64 47.56 46.68 43.42 41.85 40.22 40.05 43.18 53.70 54.13 54.13 55.40 55.15 56.30 58.27 60.38 60.80 64.32 64.72 65.33 67.20 68.62 69.91 70.40 70.84 70.29 69.79 68.79 67.02
41.81 42.75 46.21 45.03 47.87 48.19 45.17 40.98 40.59 42.61 45.40 49.71 53.24 54.19 54.93 55.97 57.55 58.80 60.40 60.90 63.34 64.21 64.81 66.80 68.35 69.40 70.16 70.44 70.74 69.48 68.36 67.30
45.50 49.09 49.68 49.43 48.85 48.42 45.19 45.71 44.49 45.10 46.99 49.90 52.91 54.75 55.83 57.34 58.61 58.92 58.98 61.17 62.29 64.08 65.03 66.70 67.71 68.70 69.78 70.19 69.83 68.66 67.74 66.72
46.18 48.75 49.37 47.75 50.30 50.82 50.73 49.59 48.36 47.63 48.22 53.36 55.50 57.18 55.88 57.65 57.99 57.80 59.38 63.32 62.19 64.24 66.10 67.23 67.91 68.37 68.66 69.06 68.88 68.25 67.01 66.39
41.22 47.12 48.50 45.89 48.36 49.13 50.07 52.30 50.00 45.22 49.01 52.90 53.31 55.29 54.88 55.10 55.83 56.20 57.72 59.74 63.70 64.74 65.46 68.13 69.00 68.80 67.47 67.73 67.78 66.63 66.02 65.54
41.82 42.04 38.88 46.93 52.83 54.77 53.00 53.38 53.35 51.62 52.83 54.25 55.40 55.61 55.15 55.09 55.73 56.66 57.39 57.44 58.66 62.99 65.55 68.57 70.33 69.10 67.17 65.63 66.13 65.79 65.08 64.99
39.69 38.63 42.79 48.81 51.90 52.49 51.23 51.09 55.06 53.23 54.96 55.19 55.69 56.37 54.59 55.83 56.63 57.10 57.01 57.83 59.47 60.47 63.73 66.31 69.11 68.66 65.73 65.14 65.48 65.08 64.41 64.54
44.47 40.25 38.19 44.91 53.99 56.23 54.18 46.24 55.29 55.36 54.66 54.17 55.00 50.68 52.97 57.04 57.96 58.68 60.39 60.96 61.62 62.43 66.86 66.06 67.00 66.05 65.31 64.37 64.16 64.00 64.54 64.99
42.31 41.02 43.85 51.69 55.52 56.14 44.51 46.05 54.95 55.38 54.40 53.81 54.06 54.52 56.24 56.72 58.42 59.53 61.62 62.89 63.42 67.23 67.67 65.95 65.51 65.85 63.98 63.59 63.78 64.69 65.21 64.79
44.02 41.52 39.29 55.29 54.87 50.98 51.72 53.64 55.77 56.25 56.79 56.70 56.04 57.02 57.89 58.33 57.32 57.59 57.42 60.97 63.05 66.12 66.51 65.97 65.70 65.85 63.86 62.85 63.56 64.10 63.20 62.65
48.70 47.21 52.72 54.84 53.76 53.96 54.53 53.65 55.46 55.71 56.80 56.90 57.26 57.84 59.85 58.56 58.25 57.76 58.81 60.12 62.25 64.14 65.49 64.88 65.32 63.59 60.73 60.44 62.46 62.77 61.61 61.87
50.13 53.06 54.80 55.71 55.54 56.16 56.33 55.88 56.38 57.45 57.88 57.75 56.53 58.96 58.95 58.94 61.47 62.67 62.51 60.83 64.36 62.90 61.61 60.39 62.27 62.08 62.11 63.97 62.80 61.15 60.59 60.67
51.20 54.05 54.06 54.80 55.03 55.64 56.87 57.58 57.20 57.35 57.73 57.55 59.53 62.70 63.70 62.78 62.11 61.32 60.65 60.63 61.46 62.24 61.05 59.96 61.48 61.76 62.50 61.93 61.08 60.35 60.47 60.97
48.40 52.90 52.15 52.35 54.54 55.88 53.57 54.05 54.71 54.07 54.43 56.29 58.34 62.33 64.45 62.72 61.46 59.99 59.55 60.01 60.82 61.71 61.56 59.78 59.76 59.50 59.87 61.07 60.05 58.24 56.98 59.70
52.85 54.46 54.05 55.01 54.69 53.71 52.93 53.36 54.12 52.59 52.21 51.56 53.07 54.92 57.63 61.87 60.87 59.41 59.76 59.79 60.74 60.96 60.69 60.72 60.30 59.81 61.25 61.16 60.52 59.39 60.92 60.60

GFSFLT2_sfc_wetblb_006.txt.gz
Wetbulb
47.78 48.68 48.51 42.69 40.26 43.52 37.55 34.35 36.48 39.71 43.91 50.01 52.76 53.83 56.99 58.98 60.42 61.21 63.69 65.07 66.08 66.59 66.86 67.27 68.11 68.89 69.91 70.33 70.69 70.97 71.34 71.14
47.05 47.89 47.22 46.19 45.93 40.79 36.80 33.27 32.45 37.79 39.72 43.27 48.08 51.89 53.66 56.36 58.46 60.61 62.80 64.77 65.88 66.99 67.32 67.88 68.58 69.54 70.24 71.01 70.83 71.08 70.67 69.40
44.20 44.13 44.13 42.87 40.86 39.47 39.60 37.13 34.67 33.96 38.13 46.09 49.18 52.04 53.82 55.79 59.06 59.85 61.26 63.65 64.85 67.08 68.30 68.58 69.03 69.42 70.13 70.81 71.16 70.86 69.63 68.06
40.80 44.24 46.92 46.74 43.48 42.45 40.83 35.83 35.77 36.90 39.42 49.37 51.20 52.01 55.12 56.13 58.77 57.81 60.89 63.37 64.46 66.70 67.90 68.12 68.47 69.11 69.94 70.74 71.18 71.68 70.34 67.10
37.42 39.86 42.88 42.47 43.14 40.53 39.56 38.60 36.53 37.87 40.35 49.93 50.90 53.09 55.48 55.58 56.46 57.49 60.02 61.57 63.43 65.23 66.55 67.20 67.46 68.75 69.74 70.53 70.98 71.70 70.57 66.10
39.26 41.01 42.62 41.91 44.68 43.64 41.99 37.39 38.05 39.79 43.42 47.72 51.84 53.00 54.58 56.13 56.54 56.57 59.04 61.12 62.42 63.51 64.86 66.08 66.44 67.47 69.14 70.13 70.87 70.84 69.17 66.31
45.36 43.61 44.67 44.62 44.90 44.33 42.50 42.65 42.13 44.90 43.77 48.26 51.73 53.06 54.51 57.44 57.54 57.38 56.82 58.31 61.03 62.83 63.63 64.35 64.88 65.86 67.93 69.32 70.37 70.28 67.94 66.79
43.22 44.75 44.59 44.05 45.35 46.38 45.97 45.21 45.07 44.85 44.87 49.41 52.98 54.06 54.41 56.02 56.99 57.14 57.64 58.41 59.49 61.71 62.74 63.24 64.19 64.52 67.21 68.42 69.48 70.37 68.79 67.37
39.37 41.29 41.31 38.69 44.85 45.01 45.98 46.48 46.71 43.61 48.36 49.73 51.39 53.60 54.39 54.53 56.59 57.96 58.10 58.90 58.34 59.13 60.84 61.95 62.71 64.52 66.05 67.91 69.78 70.00 69.42 68.65
40.73 38.11 33.24 43.95 48.11 48.82 48.42 50.68 50.50 50.46 49.90 51.12 52.95 54.88 55.29 55.61 56.51 56.93 57.56 58.67 58.63 58.51 60.01 61.31 62.21 63.92 65.85 67.40 68.85 69.74 69.29 69.03
36.42 35.40 40.35 47.43 50.24 50.60 50.19 49.10 52.88 52.02 53.94 54.14 54.07 54.84 54.22 55.43 57.60 57.27 59.00 59.87 61.36 61.61 61.17 61.55 63.17 64.76 65.72 66.91 68.32 69.07 68.78 68.13
37.01 36.03 37.34 44.55 51.19 54.40 52.60 45.78 52.45 53.09 52.35 52.27 52.58 48.80 50.69 54.54 56.48 56.30 57.81 59.36 60.96 63.02 63.38 64.01 64.08 65.86 65.65 66.00 67.24 67.78 68.24 67.90
40.42 39.27 42.55 49.98 51.85 54.42 45.63 44.50 51.98 52.96 53.57 53.83 51.16 52.77 55.21 57.33 57.45 58.47 59.83 61.51 62.88 63.74 64.52 64.65 65.28 66.09 65.32 64.86 65.90 67.46 67.50 67.74
43.44 41.31 39.11 51.76 52.26 47.80 51.13 51.82 53.15 54.28 53.44 53.44 53.99 55.24 56.80 57.99 58.17 59.16 59.63 60.86 61.76 62.01 64.22 66.22 65.56 65.82 64.55 64.76 65.80 66.21 66.09 65.18
45.27 43.98 49.71 51.73 49.86 52.15 53.81 53.97 53.84 52.93 54.24 56.39 56.02 56.64 58.10 58.24 58.80 59.75 60.87 61.46 63.46 63.85 64.34 64.37 64.81 65.74 63.88 63.24 64.81 64.27 62.52 62.17
47.73 49.39 49.72 49.88 51.72 52.08 52.83 52.34 53.28 54.08 54.92 56.44 56.50 58.94 59.06 60.59 60.25 59.88 60.87 61.48 62.58 62.64 61.62 61.47 62.81 63.27 63.23 63.97 63.82 62.64 61.64 61.96
46.97 49.63 51.71 50.77 51.93 52.79 52.40 52.66 52.51 52.80 53.55 53.83 53.84 53.49 54.10 56.16 60.21 60.00 59.83 61.22 61.72 61.23 61.16 62.05 62.74 62.24 63.50 63.30 62.72 61.92 61.54 61.33
44.35 49.95 49.64 48.83 52.15 54.63 51.57 51.56 52.38 51.52 51.06 51.76 52.21 51.98 53.44 52.33 57.36 59.40 59.93 60.92 60.04 60.00 61.32 61.29 61.60 61.77 62.59 63.41 63.97 63.13 61.73 60.73
48.06 49.29 50.13 50.77 51.82 52.54 49.89 49.84 50.85 50.49 50.91 50.50 51.32 51.08 52.39 52.51 53.76 57.78 60.15 60.98 60.66 59.71 60.03 60.42 60.76 61.57 62.33 62.20 62.63 62.37 61.48 58.79

GFSFLT2_sfc_wetblb_009.txt.gz
Wetbulb
51.02 52.83 53.72 50.73 48.60 53.71 50.02 46.48 46.65 49.91 53.44 55.83 59.11 59.67 61.14 62.86 64.68 65.42 66.64 67.95 68.43 69.67 70.22 71.25 71.81 72.74 73.50 74.10 74.66 74.43 74.50 76.02
50.22 52.26 52.31 51.85 53.28 47.51 48.37 44.41 42.37 46.72 48.15 50.05 56.80 58.75 61.30 61.51 63.51 65.37 67.17 68.14 68.92 70.24 70.61 71.80 72.09 73.06 73.69 74.36 74.60 74.88 74.66 75.53
48.97 48.46 48.07 48.99 48.51 49.15 50.94 48.88 45.83 43.96 47.40 56.78 58.99 61.95 61.34 61.93 63.65 65.30 66.66 68.21 69.47 70.51 71.14 71.96 72.42 72.79 73.24 73.44 74.47 74.33 74.72 75.72
47.14 50.52 51.18 51.47 50.45 51.17 47.36 46.76 47.75 48.02 48.32 56.80 58.26 60.35 61.43 62.54 63.19 65.05 67.45 68.51 69.22 70.07 70.82 71.15 71.74 72.18 72.62 73.18 73.34 74.85 75.60 75.54
45.20 48.94 50.19 48.44 49.97 51.47 51.42 51.63 49.82 45.58 47.93 57.54 57.77 57.94 59.79 61.03 63.69 64.46 65.70 67.10 68.79 69.49 70.59 70.85 71.61 72.83 72.62 73.51 73.41 74.21 75.16 74.30
44.88 47.15 49.57 47.12 48.20 50.05 49.72 47.08 48.03 48.13 50.42 55.04 57.47 58.88 61.04 62.07 63.68 64.24 64.58 66.91 67.90 68.88 70.87 71.96 72.76 73.08 73.33 73.52 73.94 74.26 74.24 73.95
51.04 52.43 50.32 49.13 47.52 48.76 48.41 50.35 48.34 50.14 50.77 55.00 59.64 61.00 62.68 64.02 64.60 63.13 63.82 65.33 67.34 68.35 70.57 71.99 72.66 72.94 73.22 73.30 74.51 74.94 74.86 73.97
46.85 50.45 50.09 47.82 49.35 49.17 49.70 50.03 50.66 51.58 52.38 57.60 60.76 61.81 61.87 62.31 63.82 63.06 63.45 64.89 66.64 68.35 68.88 69.71 71.03 71.47 71.65 72.69 73.56 74.73 74.50 73.51
46.57 48.63 48.09 45.11 49.06 49.65 50.65 52.01 51.58 49.45 54.40 59.38 57.69 59.15 61.32 63.37 64.14 64.54 64.84 65.17 66.36 68.01 69.22 69.43 69.99 70.89 70.65 71.81 73.15 73.56 73.84 73.47
47.14 47.09 39.70 48.53 52.95 52.60 51.42 52.39 53.84 54.48 56.48 59.42 60.34 62.64 62.21 63.16 64.53 65.34 66.45 66.77 66.73 66.41 67.87 69.39 70.05 70.25 71.21 71.87 72.91 73.43 73.36 73.17
44.22 44.81 48.60 49.94 53.03 50.72 49.70 50.40 54.92 54.81 57.41 58.33 58.66 60.46 60.16 61.02 62.61 64.38 64.71 65.78 66.89 67.23 67.73 68.71 68.78 69.90 70.54 71.04 72.05 72.40 72.64 73.02
47.57 42.92 41.39 51.04 54.58 56.72 56.44 49.31 57.78 58.38 58.85 59.44 58.94 55.11 59.62 60.88 62.08 63.85 65.37 66.88 67.68 67.93 68.35 68.65 69.52 70.22 70.14 70.54 71.22 71.54 72.46 72.99
47.99 45.72 48.57 53.10 54.55 56.78 49.12 52.81 57.70 58.75 59.20 59.09 58.58 60.07 60.89 63.14 64.31 66.02 66.42 67.28 69.20 70.07 69.84 70.20 70.65 71.53 71.23 71.25 70.99 72.71 73.51 73.28
48.23 46.21 44.74 53.98 54.86 53.04 56.15 58.23 58.89 59.41 59.66 59.22 60.38 61.29 62.49 63.32 64.16 65.29 65.57 65.81 67.86 68.45 69.21 70.72 71.28 71.81 71.13 70.59 70.96 72.39 72.31 71.76
49.34 48.92 53.41 54.25 53.48 56.90 60.09 58.78 59.64 60.56 60.91 61.29 61.32 62.33 63.31 63.37 64.50 65.31 66.41 66.98 68.43 68.81 68.75 69.39 70.33 71.28 69.95 69.98 70.58 70.95 70.93 69.46
50.09 51.30 51.53 53.56 55.02 55.85 56.86 56.80 58.56 60.49 59.64 60.45 59.94 62.62 63.86 64.71 65.00 65.31 66.47 66.80 67.81 67.99 67.78 67.45 68.66 69.03 69.09 68.35 70.05 69.50 68.79 68.04
50.79 50.98 52.52 53.18 54.45 55.33 55.89 56.30 56.24 57.14 57.86 57.02 57.93 58.06 62.24 63.44 64.34 65.08 65.80 66.12 67.17 67.75 67.48 66.84 68.24 68.27 68.78 68.91 69.00 67.90 67.92 67.26
49.32 52.50 53.36 52.93 54.23 54.16 52.45 52.88 55.07 55.45 55.28 56.38 57.93 57.93 58.54 59.14 61.95 62.31 63.70 66.12 66.25 66.96 66.94 66.35 67.44 67.34 67.84 68.69 68.32 67.53 66.22 65.35
50.81 53.62 52.49 52.69 52.62 54.22 53.28 53.86 54.25 53.59 54.49 54.03 55.15 56.32 57.03 57.67 58.99 58.37 61.50 63.01 65.32 65.87 66.28 66.73 67.25 67.16 67.97 68.33 68.17 67.04 66.13 65.30

GFSFLT2_sfc_wetblb_015.txt.gz
Wetbulb
54.86 54.67 53.45 51.98 50.77 55.68 52.67 54.33 51.60 53.70 56.47 59.97 62.15 62.44 62.70 62.79 63.14 63.91 68.20 69.85 69.63 69.89 70.72 72.75 73.90 75.94 76.95 78.44 79.37 80.01 78.17 80.63
54.48 55.09 54.29 52.40 54.96 50.89 53.95 49.21 48.45 51.42 53.44 54.34 59.04 60.25 61.64 62.00 62.29 63.87 67.27 69.77 69.93 69.78 70.55 72.68 73.13 75.01 77.07 78.26 78.95 78.82 79.31 79.65
55.03 52.46 51.14 50.88 50.67 53.48 53.96 53.37 49.30 48.76 52.51 59.69 60.76 61.69 61.14 62.05 62.72 63.63 66.02 69.19 70.04 69.96 70.66 72.02 72.68 73.90 75.12 76.34 78.04 78.35 78.88 79.12
51.99 55.40 55.50 53.82 51.87 52.44 51.50 51.72 52.92 52.96 52.58 60.11 60.93 61.42 61.63 62.12 62.93 64.43 65.86 68.66 70.29 70.44 70.72 71.27 72.25 72.32 73.45 74.78 74.66 77.01 78.17 79.18
50.84 52.72 54.27 52.06 52.65 52.92 53.13 54.84 54.40 50.64 52.31 60.41 61.54 61.64 62.48 62.19 62.96 64.43 65.79 67.18 69.79 70.71 70.76 71.38 72.02 73.29 72.58 74.25 73.61 74.86 77.54 77.59
49.09 51.32 52.96 50.62 50.90 52.17 52.15 50.33 51.97 52.37 54.62 58.25 59.76 60.38 61.31 62.28 63.71 64.13 64.88 69.28 69.26 70.69 72.38 73.02 74.05 74.63 74.70 74.15 73.76 74.50 75.43 75.73
53.62 54.12 53.97 51.91 50.41 50.74 50.48 52.34 51.19 53.18 54.13 57.71 60.06 60.93 61.68 62.35 62.99 63.27 63.71 67.38 70.23 71.10 74.66 75.79 75.57 76.12 76.33 75.85 76.28 75.67 76.46 76.24
51.82 53.55 53.01 51.54 52.99 52.13 51.60 51.39 51.85 52.78 53.19 58.77 60.62 63.15 62.07 61.98 62.55 62.61 63.34 64.68 70.18 71.47 72.90 76.08 76.23 77.13 77.38 77.24 77.66 77.50 78.04 77.45
49.18 53.40 53.19 49.64 52.57 53.24 53.90 54.16 53.11 50.45 54.04 57.70 58.35 60.72 61.61 62.58 62.86 63.04 63.42 65.25 67.83 71.11 72.34 75.01 75.47 77.95 77.57 78.42 78.34 78.53 78.82 80.18
50.02 52.42 44.98 54.09 57.69 55.92 54.32 55.16 56.42 56.11 56.40 57.20 60.56 61.90 62.87 62.77 62.90 64.02 65.68 66.76 67.47 70.71 72.72 75.60 75.51 75.71 77.48 77.34 79.07 79.31 79.76 79.36
48.71 48.73 52.40 54.32 56.03 56.86 56.17 56.31 58.08 57.00 58.57 58.28 58.23 58.54 60.70 62.51 64.27 65.10 64.82 66.79 67.69 71.96 73.19 76.93 76.63 78.16 78.14 77.30 78.19 78.49 78.64 79.11
51.54 47.30 46.12 53.98 58.79 60.70 59.82 52.69 58.87 60.00 60.34 58.55 58.17 53.40 57.84 62.89 62.57 64.12 67.41 67.89 68.89 72.83 73.71 75.66 77.22 76.35 76.85 75.59 76.20 76.53 77.60 77.81
50.26 49.39 52.03 58.10 59.01 60.40 51.64 54.07 63.29 63.61 63.82 63.11 59.93 59.27 62.44 66.26 64.97 66.39 68.49 69.33 73.33 73.89 75.29 76.51 76.49 75.97 76.59 76.29 75.39 75.98 76.49 76.57
51.13 48.51 46.18 59.87 59.70 55.63 59.91 63.42 64.09 64.67 64.82 64.56 65.45 61.64 66.36 68.17 68.45 69.14 69.38 71.07 72.87 73.60 74.12 75.54 76.55 76.48 76.83 76.13 77.52 78.22 78.09 77.36
52.92 52.47 60.20 61.10 60.80 62.21 63.00 64.06 64.64 65.33 66.04 66.21 64.79 66.73 68.24 69.05 70.06 70.87 71.42 71.72 72.49 72.89 73.50 74.74 76.28 76.45 76.26 78.66 78.95 78.56 77.32 77.74
57.16 58.37 58.72 60.02 61.94 62.82 64.02 63.65 65.88 67.12 66.54 66.67 66.80 67.61 68.11 68.73 69.27 70.07 71.16 71.60 72.40 72.48 72.64 74.66 76.73 76.79 76.77 76.39 76.95 76.56 76.27 73.91
57.22 58.20 59.01 59.51 60.60 61.80 62.32 63.37 63.83 64.14 64.01 65.64 66.44 66.40 67.20 67.94 68.59 68.76 69.30 69.81 70.99 71.08 71.62 72.41 73.98 74.34 74.87 75.40 76.01 74.39 71.75 70.24
53.04 58.74 58.89 57.27 58.90 60.59 59.25 59.62 60.87 61.41 60.90 61.81 63.81 63.49 64.80 65.98 68.57 68.86 68.73 69.50 69.71 70.62 71.54 72.68 73.37 73.49 74.33 75.19 74.32 72.29 70.94 69.98
56.83 59.93 57.87 57.67 57.42 57.52 56.48 57.77 58.29 58.96 59.44 59.44 60.58 61.12 60.82 61.43 63.06 61.17 67.24 69.19 69.48 70.04 71.00 72.24 72.18 72.32 73.37 74.11 73.70 72.97 72.17 72.09

GFSFLT2_sfc_wetblb_021.txt.gz
Wetbulb
53.50 53.23 51.13 46.20 43.97 46.93 40.19 43.03 41.41 45.73 48.37 53.35 59.64 59.81 61.35 61.17 62.49 63.37 63.36 66.71 66.41 66.79 67.98 69.19 70.04 71.94 72.50 74.45 74.38 74.83 75.32 75.63
53.07 53.28 52.11 48.77 48.37 41.86 44.13 37.12 38.15 44.09 45.35 48.07 51.93 57.66 59.20 59.55 60.68 62.06 63.16 66.17 67.08 67.02 67.90 69.51 70.47 72.04 73.06 74.96 74.66 75.17 74.54 75.89
50.81 49.11 47.50 47.39 45.88 44.47 43.07 43.72 39.60 39.19 44.22 50.74 54.19 59.12 59.08 60.10 61.27 60.36 63.96 65.21 67.26 67.86 68.42 69.92 70.85 71.64 72.56 74.33 74.70 75.12 75.45 74.92
46.30 51.45 53.01 50.61 47.08 44.60 41.84 37.50 41.19 41.84 43.57 53.57 53.91 59.24 61.05 60.78 60.92 60.46 61.43 66.56 67.65 68.07 68.54 69.92 70.14 70.61 72.26 74.72 74.80 75.52 76.17 75.62
43.48 47.32 50.39 48.67 49.36 47.51 46.53 42.53 40.45 38.89 43.79 52.75 53.60 58.15 59.81 60.30 61.60 61.52 61.55 64.66 67.23 67.49 68.50 69.55 70.17 70.43 71.89 73.77 74.96 75.74 76.18 75.77
42.12 44.62 47.22 47.22 49.06 49.36 46.53 42.70 42.70 43.42 44.18 48.33 53.78 56.45 57.24 59.81 60.42 61.67 62.87 63.21 65.39 67.11 68.02 69.22 70.12 70.67 71.14 72.62 74.84 75.54 76.04 75.52
48.14 49.26 49.92 49.16 49.98 49.47 46.69 46.33 43.40 44.58 45.09 48.04 50.95 57.02 57.82 59.83 59.96 60.27 61.58 64.47 64.25 66.40 66.80 68.11 68.98 69.95 71.14 72.04 72.86 74.87 75.02 75.16
46.79 49.43 49.15 47.70 50.44 51.19 49.59 49.19 48.53 48.52 47.64 50.16 52.65 59.13 59.46 59.16 59.81 57.82 59.98 64.82 65.35 66.51 66.95 67.28 67.99 68.84 70.13 71.44 72.21 73.24 74.27 74.25
41.16 47.70 47.59 44.75 48.04 49.86 50.77 51.23 49.96 46.23 49.37 51.24 51.78 54.79 58.47 60.03 59.07 58.42 59.93 64.71 65.11 65.23 68.36 67.84 68.65 69.35 69.70 70.93 72.24 72.37 72.50 73.74
41.77 44.28 38.95 47.01 52.93 53.30 52.10 53.05 51.88 50.73 51.29 53.05 53.46 54.56 56.63 56.81 56.07 56.57 61.74 63.21 66.53 67.68 67.28 70.13 70.01 69.97 70.37 70.53 70.96 71.32 71.02 72.13
39.80 41.62 44.00 48.74 50.68 50.85 50.00 50.05 54.11 54.47 55.59 57.33 58.71 53.59 52.29 57.56 58.21 57.50 57.00 59.58 61.43 66.55 68.39 69.20 71.12 70.91 70.21 69.77 70.35 70.10 69.98 70.56
40.71 38.50 38.19 45.20 52.79 55.48 57.05 47.56 59.07 59.24 58.45 58.53 58.12 51.38 54.17 61.08 62.18 61.21 60.76 60.22 60.84 62.67 65.50 69.71 69.01 72.04 70.46 69.72 69.83 69.75 70.05 71.57
42.46 39.92 43.53 50.84 53.24 58.27 47.13 48.25 59.05 59.99 59.43 59.36 56.35 58.00 60.44 62.66 61.63 62.29 63.18 59.97 60.76 61.80 64.29 69.47 69.43 72.05 71.39 70.55 69.91 71.61 72.51 72.71
43.92 39.93 38.83 57.09 56.14 51.59 53.45 58.53 60.64 59.86 59.62 58.03 58.22 60.20 60.35 61.73 62.24 61.47 62.89 64.16 61.95 60.85 66.92 69.57 71.07 72.39 71.69 71.67 72.56 72.32 75.36 74.77
47.09 49.46 55.72 59.40 58.75 59.59 62.53 61.84 62.43 62.99 63.71 64.06 63.76 63.45 64.57 66.56 65.87 66.96 67.01 68.49 71.25 71.60 71.95 72.07 72.39 73.25 72.06 74.15 75.29 75.49 75.23 75.45
49.61 53.17 55.80 58.06 59.76 62.55 62.07 61.06 61.42 62.87 63.11 63.25 60.69 61.51 62.05 64.17 66.27 68.76 69.87 69.76 71.03 71.91 72.33 73.02 74.27 74.53 74.90 74.65 75.01 74.77 74.44 74.06
50.25 54.31 54.96 59.03 60.50 60.88 60.90 60.64 60.32 60.16 59.73 60.10 60.13 59.61 60.54 61.18 64.16 66.89 68.23 69.89 71.62 72.71 72.58 72.45 73.68 73.86 74.13 74.55 74.85 72.92 72.02 70.99
48.82 51.52 52.06 53.38 57.78 59.80 58.57 58.34 58.37 57.58 56.96 57.88 57.34 56.56 57.84 58.70 60.92 63.35 67.02 68.01 67.94 70.04 71.14 72.00 73.21 72.47 72.42 73.06 72.16 70.12 68.60 68.40
53.34 54.00 53.09 53.51 53.63 55.61 55.14 56.07 57.60 57.22 56.85 55.32 56.91 57.19 57.55 56.51 58.01 58.59 61.39 66.55 68.12 67.39 68.28 69.32 70.31 70.57 70.92 70.68 70.00 68.93 67.20 66.64

GFSFLT2_sfc_wetblb_024.txt.gz
Wetbulb
51.95 51.15 49.23 44.57 40.30 44.41 37.54 37.11 36.83 41.00 44.85 50.04 55.14 57.13 60.53 61.89 62.38 62.55 63.02 63.75 64.81 66.54 67.34 67.84 68.64 70.14 71.39 71.42 71.36 72.58 72.65 72.22
50.10 51.00 51.90 46.42 46.39 39.98 35.60 34.94 34.74 37.59 40.99 44.99 48.64 53.46 56.61 59.84 61.84 62.98 63.75 63.92 64.70 65.01 66.89 68.45 69.00 70.73 71.85 72.31 71.85 72.62 73.47 73.22
46.40 45.83 46.22 46.33 43.90 39.09 40.66 39.93 37.13 33.28 40.83 46.75 49.27 51.77 54.86 60.53 62.76 63.35 64.14 64.62 64.93 65.00 66.92 68.11 69.27 70.84 71.87 72.28 71.99 72.80 73.34 73.63
43.46 48.00 50.77 49.58 46.05 42.33 40.44 35.69 38.99 41.57 41.94 50.20 50.59 52.01 56.35 58.86 61.78 63.61 64.37 63.79 65.82 65.65 65.97 67.35 68.60 70.25 71.21 72.98 72.62 73.07 74.01 74.13
38.49 42.48 45.32 44.81 47.54 47.04 39.02 38.25 40.09 37.09 39.40 48.61 48.46 50.76 57.99 57.97 59.61 59.61 60.48 60.93 64.29 66.09 65.65 66.75 68.20 69.41 70.96 72.70 73.13 73.58 73.74 73.70
40.48 42.63 43.96 42.29 46.60 46.76 45.06 42.30 41.12 41.89 41.21 44.49 46.91 49.73 52.72 53.57 58.98 60.08 60.70 62.37 64.27 65.83 65.86 67.09 68.31 69.20 70.59 71.83 73.78 73.99 74.07 73.60
43.06 46.03 47.38 46.53 46.52 47.24 44.77 45.79 42.88 45.07 41.26 44.08 46.27 47.20 50.47 53.41 56.97 59.13 59.20 61.77 64.33 64.90 66.05 67.30 68.01 68.92 70.27 71.89 73.39 74.11 73.86 73.84
41.22 47.14 47.32 45.88 47.80 48.44 47.78 47.50 46.16 43.72 42.41 46.94 49.28 49.03 52.18 54.85 58.62 57.39 59.96 61.22 63.82 66.22 66.87 67.01 68.29 68.62 69.61 71.08 73.34 74.13 73.96 73.97
34.29 44.01 45.80 43.07 46.97 47.29 47.76 48.49 47.42 43.50 45.89 48.30 48.60 51.36 53.31 55.21 56.97 56.50 56.33 61.47 62.76 65.15 66.41 67.81 68.89 69.46 69.16 70.56 73.03 73.58 73.78 74.28
35.01 38.69 36.80 45.32 50.48 50.40 47.31 49.27 49.42 48.51 49.31 49.81 50.96 51.84 53.75 56.49 56.60 55.70 57.92 59.86 62.43 65.50 66.44 68.22 69.28 69.72 70.34 70.51 71.37 72.65 72.97 73.47
33.77 35.28 41.57 46.79 48.45 48.43 45.85 46.68 51.48 49.11 50.21 51.27 53.56 52.24 55.82 58.25 55.62 54.52 56.95 58.74 61.74 65.62 66.68 67.08 67.32 68.67 69.23 69.69 70.43 70.91 71.50 72.72
38.99 36.26 35.47 43.43 50.29 53.66 52.45 43.90 56.58 56.09 55.44 55.38 53.86 47.53 50.75 58.47 59.79 58.65 58.72 58.46 57.47 64.28 66.12 66.87 67.15 68.28 68.37 68.51 69.65 69.75 70.86 71.33
38.78 39.08 40.53 47.25 50.84 55.09 45.64 45.84 56.55 56.94 56.32 55.62 54.63 53.93 57.16 58.98 59.24 59.50 59.93 61.57 58.62 56.67 61.95 67.16 69.11 68.28 67.38 68.01 68.34 70.49 71.18 71.32
41.10 38.88 36.92 52.69 54.09 47.98 50.99 56.71 57.58 58.81 56.60 56.47 58.68 63.15 64.84 64.66 62.44 60.52 59.68 61.85 63.04 57.39 56.23 60.20 67.33 69.21 67.77 67.20 69.10 69.97 70.13 69.85
43.68 45.31 49.85 55.26 55.79 59.71 61.11 59.91 59.90 60.79 61.71 62.49 61.67 62.46 63.94 64.77 66.38 67.84 68.06 68.54 69.28 60.95 57.24 58.34 65.03 69.78 68.59 68.52 69.09 68.95 69.27 68.96
46.91 50.89 51.72 51.78 53.75 58.65 59.19 58.23 59.21 60.20 60.07 61.06 60.50 61.57 62.68 64.41 65.16 66.53 67.84 68.83 70.07 70.02 68.61 69.53 68.71 67.86 70.01 70.56 70.07 70.62 70.12 71.01
48.04 50.62 52.53 52.09 52.67 55.86 57.75 58.00 57.41 57.22 57.33 57.44 58.64 58.09 59.44 59.71 60.78 64.07 66.31 67.41 68.42 68.81 70.35 70.53 71.44 72.08 73.15 73.68 72.21 72.97 73.26 73.70
46.94 51.25 48.40 50.90 53.62 57.80 55.22 55.12 55.58 55.70 55.19 56.24 56.48 55.54 56.61 56.37 57.51 60.01 63.38 65.95 65.53 65.49 65.95 67.95 69.13 70.71 73.14 73.98 73.40 72.03 70.80 68.76
51.66 53.31 52.25 54.05 53.98 54.36 53.86 55.01 56.13 55.44 55.00 54.09 54.68 55.39 55.66 54.85 56.19 58.37 62.37 64.95 65.67 66.21 67.23 67.91 59.83 58.09 69.44 71.01 71.38 70.40 67.93 66.14

GFSFLT2_sfc_wetblb_027.txt.gz
Wetbulb
50.56 48.51 48.81 42.67 40.30 43.92 35.16 34.51 33.92 38.14 42.65 47.62 52.54 54.50 56.65 58.29 59.82 60.60 61.98 63.76 64.45 65.52 66.03 66.91 67.27 68.42 69.43 69.34 70.21 71.82 71.92 71.79
48.74 49.67 47.76 46.25 44.07 38.91 32.68 32.89 32.69 35.04 38.22 40.71 47.03 51.09 53.33 57.24 58.35 60.50 61.96 63.03 64.42 65.05 65.88 66.89 67.59 68.32 69.77 70.21 69.84 70.90 72.15 72.09
45.19 43.41 45.06 43.35 41.43 37.61 38.58 35.72 35.22 32.04 38.32 44.97 47.70 50.40 52.06 55.24 59.52 61.15 61.70 62.49 63.62 64.85 66.08 66.69 67.67 67.85 69.16 69.93 70.00 70.11 71.26 71.87
42.88 45.58 48.91 47.60 45.79 40.35 36.58 35.54 36.70 39.88 39.07 46.39 48.96 50.99 51.58 53.13 57.75 60.70 62.97 63.09 63.76 64.18 65.06 66.04 66.91 67.44 68.75 70.13 70.16 70.59 71.53 71.40
35.70 39.03 41.88 42.40 45.27 45.86 43.04 37.78 40.56 36.58 37.91 46.15 48.50 49.68 53.31 53.46 56.80 58.16 61.39 62.96 63.48 63.48 63.31 65.13 66.48 67.22 69.03 70.06 70.54 71.04 71.53 71.70
34.34 36.73 40.93 39.87 43.79 45.62 43.64 40.13 41.65 41.58 40.26 42.61 45.79 46.66 49.05 52.23 54.98 57.24 59.18 60.55 61.51 62.20 62.84 64.64 66.22 67.33 68.81 70.04 71.17 71.22 71.61 71.76
38.16 41.46 43.03 43.37 42.95 45.03 42.43 44.69 42.11 43.91 40.61 43.74 45.56 46.58 47.79 49.61 50.71 54.39 56.26 59.10 61.11 63.35 63.53 64.09 65.52 67.09 68.84 70.16 71.36 71.62 71.59 71.82
36.22 42.56 43.66 42.97 44.88 45.59 45.79 46.04 44.43 44.81 41.10 45.60 48.66 47.90 46.76 48.60 49.70 53.08 56.24 59.05 60.60 63.13 64.10 64.18 65.64 66.66 68.07 69.56 71.43 71.99 71.57 71.58
30.42 38.89 40.00 38.62 44.07 45.25 45.93 46.83 46.23 42.70 45.03 46.25 45.97 46.64 47.48 48.59 49.60 52.63 54.13 57.97 60.28 63.31 64.35 65.04 66.07 67.59 67.56 69.42 70.87 71.99 71.89 72.04
30.91 34.23 31.45 43.15 48.04 48.87 47.13 47.66 46.69 45.29 47.03 47.85 48.28 50.17 50.74 50.94 52.14 54.15 55.54 56.43 59.88 60.70 61.98 65.65 67.07 67.82 68.42 69.52 70.60 71.54 71.73 71.98
30.69 31.06 38.09 44.22 46.69 46.04 44.88 44.19 48.46 48.23 48.57 48.61 48.99 50.46 50.14 54.39 54.03 55.56 56.51 57.01 60.66 62.87 63.60 63.76 65.87 67.80 68.16 68.54 70.07 71.27 71.51 71.99
33.73 30.48 31.58 40.00 49.75 53.23 51.11 43.56 49.92 50.04 49.42 49.26 49.36 44.92 49.40 55.82 55.97 55.72 55.24 55.00 58.15 61.99 62.50 63.26 66.17 67.89 67.73 67.65 69.09 70.56 71.64 72.23
34.93 34.22 38.33 47.19 52.76 55.02 41.32 44.44 54.70 53.08 51.25 50.84 49.13 50.34 52.84 57.98 57.67 57.53 57.24 58.13 57.37 60.68 63.54 63.75 63.90 66.93 67.28 67.66 67.84 70.02 71.91 72.65
36.11 35.73 32.48 52.19 52.20 48.48 51.47 56.23 55.81 55.00 54.84 54.61 56.72 60.40 61.01 61.00 61.79 62.81 62.56 64.57 63.54 54.71 57.68 61.13 63.77 65.82 66.22 66.58 68.94 69.64 70.16 70.87
40.77 41.15 48.57 51.40 53.55 54.05 54.79 55.87 58.02 57.47 60.03 62.92 62.57 62.65 63.60 63.90 65.21 66.58 67.05 67.73 68.36 67.34 65.28 62.67 58.41 64.18 63.88 66.52 67.93 68.47 69.27 69.60
45.47 48.71 51.31 53.73 54.92 55.03 56.61 54.98 55.74 57.96 59.95 61.89 62.09 62.60 62.47 63.37 64.56 65.90 67.07 67.43 68.61 69.26 69.37 68.76 70.43 68.00 64.35 65.64 65.73 65.88 67.06 68.35
45.87 49.99 52.06 54.39 53.53 55.17 55.73 55.79 56.27 56.63 56.26 56.58 58.33 57.29 58.19 58.71 60.30 62.67 64.15 64.32 64.70 65.26 65.12 64.09 64.17 63.53 63.44 65.03 67.62 64.49 66.23 67.14
43.38 50.24 49.88 50.86 53.15 55.01 54.70 54.48 54.99 55.27 54.97 55.39 55.71 55.16 56.80 56.87 58.15 60.25 62.30 63.67 64.01 64.29 64.29 61.87 57.53 56.87 58.51 58.32 58.67 62.19 68.39 67.85
49.63 52.00 52.82 53.69 54.27 54.83 54.86 55.68 56.14 56.02 56.32 55.92 56.12 56.47 56.59 56.61 57.61 58.39 61.13 62.47 59.85 59.82 63.78 64.95 61.81 58.52 58.30 59.05 61.99 59.01 63.96 65.03

GFSFLT2_sfc_wetblb_030.txt.gz
Wetbulb
47.48 47.08 47.34 40.36 40.17 41.75 34.32 32.96 32.17 36.08 40.33 46.49 49.92 50.75 56.02 58.08 59.61 60.12 61.05 63.95 65.00 66.20 66.69 66.90 66.90 68.11 69.10 69.40 69.55 70.04 70.50 70.63
47.36 47.63 47.20 43.75 43.55 37.80 32.33 30.60 28.76 33.85 35.86 40.74 46.01 49.60 51.79 54.90 57.48 59.57 60.85 61.62 64.17 65.44 66.17 66.93 67.40 68.22 69.43 69.97 69.56 70.21 70.81 71.23
44.60 43.53 44.21 40.99 39.42 36.45 39.02 34.47 32.33 29.82 36.68 42.92 46.83 49.52 51.25 53.44 57.64 59.18 59.88 61.09 62.59 64.61 66.05 66.65 67.33 67.59 68.48 69.44 69.63 69.93 71.33 71.55
39.00 43.21 47.82 48.04 43.91 38.31 36.87 34.12 32.61 33.62 38.35 45.94 46.87 50.09 51.43 52.63 54.75 58.69 60.13 61.39 62.24 63.96 65.24 65.89 66.20 66.95 67.63 69.05 69.30 69.94 71.23 71.68
34.69 40.45 41.60 40.77 44.31 40.90 43.09 36.29 38.02 35.52 38.42 48.78 47.43 48.31 50.25 50.68 52.21 55.03 58.76 60.28 61.51 62.19 63.61 64.83 65.53 66.46 67.07 68.39 69.30 69.98 70.46 71.40
31.65 34.62 39.12 37.60 41.70 43.24 42.97 40.10 40.69 40.08 40.61 43.10 45.83 47.04 48.65 50.72 53.09 55.76 57.40 58.68 59.79 61.01 62.58 64.23 65.32 66.24 66.74 67.92 69.53 70.03 70.04 70.42
35.87 39.52 40.72 40.75 41.05 42.36 40.58 43.41 40.92 43.61 43.49 45.15 45.93 46.46 48.98 50.36 52.81 53.36 55.89 57.68 59.06 60.54 61.62 62.76 64.62 65.94 66.79 68.00 69.10 70.18 69.84 69.98
34.24 40.22 40.77 39.05 41.97 43.38 43.51 42.82 42.07 44.30 42.77 45.56 48.51 47.80 48.38 49.37 50.28 50.75 52.14 54.88 57.57 61.16 62.44 61.93 64.35 65.42 66.78 67.98 68.92 70.20 69.76 69.74
29.49 36.98 37.81 35.66 40.98 42.74 43.03 44.17 43.88 40.89 44.69 47.29 46.29 47.08 48.24 49.47 49.94 50.10 51.09 54.24 56.97 58.98 62.36 63.11 63.94 65.70 66.40 67.82 69.86 69.99 69.96 70.21
29.47 32.85 28.05 38.56 44.65 46.07 44.86 46.01 45.70 45.30 46.88 48.32 49.62 51.13 50.92 51.15 51.73 51.09 51.67 52.97 56.28 59.01 61.33 64.26 65.02 65.60 67.04 68.38 69.53 69.98 69.94 70.22
28.83 29.15 35.97 40.07 46.27 47.26 45.51 44.78 48.01 47.30 47.98 48.14 49.58 49.72 50.27 50.91 51.01 52.09 53.26 54.90 56.08 59.33 61.86 63.02 63.66 65.42 66.36 67.41 68.96 70.25 70.32 70.30
30.00 28.54 28.42 38.92 49.91 53.21 52.47 42.23 50.46 50.82 48.88 49.23 47.74 44.17 49.02 52.13 55.49 53.62 55.18 55.83 57.11 59.34 61.57 61.75 63.83 65.55 66.04 66.59 68.26 69.10 70.88 71.15
30.20 31.09 35.47 43.55 50.83 54.32 41.08 42.99 53.62 54.19 54.70 49.42 47.86 51.35 52.92 55.00 57.98 56.61 56.82 58.96 59.48 60.54 61.74 62.13 64.20 66.11 65.97 66.56 67.25 69.53 71.22 71.98
30.36 30.34 29.05 49.36 50.05 47.58 49.33 53.50 54.94 55.17 56.58 56.29 49.66 52.12 56.58 58.34 60.74 61.67 64.58 67.32 65.19 61.96 61.79 57.59 63.69 65.67 65.63 65.69 68.31 70.12 71.43 71.80
34.17 34.12 43.08 50.75 51.33 53.23 53.95 54.63 55.29 55.19 56.40 58.32 55.64 60.27 62.93 64.21 65.64 66.69 67.60 67.98 68.26 68.77 69.13 69.74 64.86 65.00 64.64 64.82 68.51 68.87 69.20 70.51
39.94 43.20 47.02 50.81 53.19 53.95 55.63 55.23 55.73 56.38 57.45 60.94 61.75 62.77 63.21 64.46 64.62 64.77 65.47 67.13 68.43 68.04 66.35 65.98 66.88 66.13 66.44 68.19 70.18 67.41 67.68 68.42
39.02 44.18 49.75 52.04 52.13 52.82 55.43 56.22 55.85 56.21 55.90 56.10 59.33 58.47 60.60 60.94 62.31 63.16 63.39 63.31 63.70 62.40 60.48 59.64 59.88 59.58 60.05 61.24 66.55 67.59 66.24 66.48
35.83 44.34 47.78 49.23 52.23 53.97 55.22 55.38 56.30 56.07 56.35 56.57 57.61 57.54 59.24 59.09 60.60 61.54 60.48 60.61 62.35 63.96 64.48 62.82 60.59 59.06 58.95 61.64 61.39 64.90 67.89 68.41
43.62 49.22 50.85 52.72 54.34 55.32 55.41 55.38 55.80 56.27 57.25 57.95 58.53 59.34 60.32 60.53 61.13 60.72 63.09 63.14 63.06 63.35 63.77 64.44 64.73 63.56 63.94 62.83 64.18 64.15 64.98 65.24

GFSFLT2_sfc_wetblb_033.txt.gz
Wetbulb
50.25 51.13 51.38 47.92 46.11 49.96 44.45 43.64 42.59 45.90 49.35 52.55 55.12 56.12 58.74 61.17 62.79 65.03 67.07 68.39 69.16 70.50 71.28 71.42 71.75 72.53 73.02 73.07 73.56 74.39 74.45 74.95
49.88 51.44 51.46 49.34 51.01 43.70 45.67 39.05 38.36 43.56 44.84 47.47 53.29 54.48 56.66 58.73 60.72 63.39 65.46 67.11 68.59 70.01 71.17 71.76 71.45 72.71 73.33 73.42 73.42 74.02 74.47 74.77
49.76 47.86 47.27 46.51 46.56 47.87 47.53 45.49 41.08 40.06 44.01 52.74 54.65 57.88 58.05 58.68 60.81 62.20 64.14 65.68 66.60 69.21 70.91 72.04 72.05 72.06 72.98 73.25 73.50 73.93 74.39 74.72
46.13 51.07 52.14 50.20 48.63 48.35 43.91 43.18 44.90 44.78 44.66 53.22 55.02 56.38 58.31 58.97 60.52 62.51 64.70 66.38 66.46 67.14 69.16 70.02 71.56 72.00 71.75 72.92 73.25 73.83 74.32 74.63
44.32 47.82 49.11 48.24 49.88 49.66 49.49 48.94 45.02 41.92 44.59 54.08 53.80 54.29 57.15 57.96 59.56 61.22 62.77 64.46 66.27 66.63 67.59 69.73 70.72 71.24 71.50 72.25 72.63 73.54 74.43 74.38
42.67 45.23 45.55 44.39 47.13 49.38 48.60 45.65 45.72 45.71 47.60 51.52 53.30 53.99 56.33 57.95 59.56 60.61 62.01 64.84 66.17 66.89 68.63 69.73 70.64 71.02 71.34 71.86 72.82 73.41 73.77 74.30
42.50 43.04 43.49 43.90 44.32 45.66 46.08 48.36 46.55 47.89 48.55 51.20 53.38 54.94 56.80 58.56 59.76 60.36 60.91 62.99 65.62 66.49 69.17 70.09 70.83 71.42 71.39 72.02 72.91 73.53 73.54 73.72
39.20 42.22 43.30 42.46 44.79 45.39 45.85 46.43 46.92 48.25 48.48 54.30 55.20 57.10 57.65 58.38 59.81 60.47 59.51 61.89 64.21 67.11 68.25 68.62 70.11 70.64 71.03 71.72 72.21 73.66 73.26 73.02
35.38 41.16 41.55 39.51 43.86 45.50 46.58 48.17 48.06 45.09 49.80 53.30 53.32 54.65 56.07 56.95 59.48 60.65 60.61 61.63 62.87 64.09 66.68 69.20 69.38 70.93 70.77 71.38 72.57 72.90 73.07 73.73
35.56 38.11 31.92 44.55 48.82 48.74 48.52 49.26 50.26 50.23 51.31 53.36 55.10 57.67 59.28 59.97 59.79 60.69 61.81 62.23 63.75 62.51 65.44 69.16 69.05 69.04 71.42 72.16 72.19 72.58 73.02 73.60
33.77 35.16 39.75 41.90 45.75 49.02 49.53 49.31 55.25 53.09 52.39 53.22 54.91 56.24 57.93 59.58 59.77 61.00 62.16 63.59 63.45 63.51 64.59 69.17 69.75 70.98 71.72 71.91 72.65 72.95 73.07 73.53
35.52 31.76 31.66 43.61 48.90 53.36 54.95 44.93 56.01 56.93 56.98 55.56 54.53 51.26 54.06 61.21 60.21 60.00 60.64 62.30 63.82 63.94 65.49 66.37 68.87 70.03 70.99 70.67 72.07 72.57 73.50 73.76
33.35 33.10 37.91 45.72 50.20 55.70 45.20 47.60 57.49 58.60 59.09 58.81 57.17 56.82 60.81 62.26 61.88 62.35 63.52 63.63 63.85 64.95 67.60 68.84 69.69 70.34 70.85 71.69 71.78 73.32 73.96 74.33
33.80 31.66 29.69 47.54 48.52 44.79 53.67 57.15 57.47 58.67 60.22 60.02 60.67 61.86 62.92 61.72 61.88 64.89 67.17 66.55 63.82 65.92 66.35 67.92 70.06 71.16 72.33 72.61 73.64 74.14 74.62 74.86
37.20 36.94 45.84 48.87 50.13 53.90 56.66 55.65 57.45 59.26 60.73 61.17 60.42 60.99 63.45 61.71 67.44 69.33 70.75 70.79 71.92 71.81 70.33 69.67 70.78 72.13 71.62 72.00 73.20 73.95 74.37 75.05
39.63 42.05 45.03 46.70 50.57 52.44 57.84 58.28 59.90 60.45 60.93 60.47 59.88 63.46 63.47 67.09 69.97 70.98 69.55 70.44 71.80 71.52 70.39 69.36 70.84 72.00 72.65 73.18 73.32 73.76 73.87 74.81
39.54 42.43 44.39 46.59 49.32 52.71 55.60 58.15 59.43 59.53 59.13 58.91 63.23 64.88 66.67 68.22 68.12 67.80 67.09 66.54 66.56 65.86 65.12 65.06 66.64 67.16 68.71 71.96 74.34 72.87 72.59 72.66
35.60 44.08 45.35 47.43 51.09 55.10 56.40 57.11 59.56 57.42 58.67 60.86 63.05 63.69 66.52 66.07 65.97 66.31 66.90 67.82 67.76 67.42 66.94 66.33 66.17 65.88 67.13 68.31 70.48 73.60 72.83 71.65
42.79 46.17 46.72 49.22 51.72 54.90 56.46 58.62 58.00 57.18 60.73 61.31 62.33 62.26 62.08 61.87 62.76 61.36 66.17 66.59 66.70 64.99 65.72 66.58 67.94 67.66 67.11 69.14 69.64 69.28 69.43 69.58

GFSFLT2_sfc_wetblb_036.txt.gz
Wetbulb
53.26 53.73 53.62 51.08 48.16 52.11 47.56 49.22 46.53 49.14 51.73 55.29 57.84 58.96 60.23 60.75 62.32 63.72 68.66 70.45 71.46 72.35 73.28 74.08 74.74 75.99 76.61 77.52 77.78 77.45 77.10 78.95
52.24 53.97 53.94 52.95 53.71 47.18 48.27 43.20 42.47 46.53 48.87 50.33 54.99 56.45 59.03 59.95 61.72 63.51 66.78 69.69 70.79 72.06 73.06 74.15 75.05 75.82 76.77 77.61 77.79 78.10 77.76 77.78
52.27 50.15 50.00 50.33 50.06 50.70 50.33 48.53 45.06 44.36 47.48 55.57 56.11 58.22 58.54 60.37 62.35 63.65 65.80 68.31 70.14 71.04 72.44 73.46 74.63 75.23 75.50 76.39 77.45 77.36 77.81 78.45
49.54 53.05 53.70 52.86 51.13 51.29 46.70 46.88 48.29 48.44 49.24 55.10 56.41 57.76 59.74 60.18 61.92 63.82 65.49 66.89 68.69 69.94 71.22 72.56 73.45 74.10 74.55 75.30 75.62 76.11 77.82 78.68
48.48 51.19 52.87 50.69 51.87 52.37 51.58 51.56 49.04 45.71 48.68 56.35 57.44 57.38 59.05 59.88 61.49 63.09 64.48 66.26 67.78 68.70 69.22 70.84 72.66 73.78 73.87 74.46 74.92 75.74 77.30 76.54
46.64 49.25 51.52 49.34 50.81 51.70 51.01 48.41 48.88 49.76 51.02 53.91 54.55 56.66 57.26 58.38 60.00 61.27 64.14 65.21 66.12 67.45 68.69 69.72 72.29 74.52 75.53 74.02 74.78 75.24 75.64 75.89
50.50 48.39 48.31 50.68 50.20 51.08 50.39 51.33 49.08 51.18 51.72 54.41 56.17 57.12 58.29 59.37 60.09 60.38 61.57 63.18 65.16 67.56 69.51 71.70 72.53 74.09 75.61 74.50 75.33 75.52 76.90 75.54
45.47 47.41 46.94 46.51 49.33 50.28 51.15 51.89 51.90 52.31 52.47 57.25 57.97 58.81 58.81 59.42 60.07 60.26 61.31 61.82 62.93 65.47 69.87 71.80 72.58 73.25 73.82 75.25 75.06 75.87 77.23 76.87
43.07 47.38 46.32 43.89 48.05 49.57 50.60 52.33 52.16 49.98 54.16 57.06 56.90 57.36 58.44 59.10 59.96 60.41 61.37 62.78 63.88 65.03 67.77 69.87 71.61 73.35 73.51 75.41 75.56 76.29 76.65 77.68
42.37 44.86 37.10 48.95 53.38 52.62 50.88 52.28 53.63 53.73 55.02 56.35 57.19 58.54 59.45 60.27 60.30 60.66 61.31 62.25 64.12 64.33 65.75 68.09 69.61 69.17 72.25 73.82 76.57 76.46 76.72 77.17
39.10 40.28 45.22 47.20 48.53 49.07 49.58 50.70 54.43 54.22 55.59 56.11 57.13 57.57 58.05 60.03 61.03 62.31 63.07 63.79 64.57 65.06 65.53 68.91 68.36 69.60 70.53 72.45 74.26 74.99 76.41 76.96
40.82 36.99 37.20 47.20 51.16 52.85 53.06 47.71 56.16 57.40 57.67 58.93 60.39 53.31 55.85 60.56 61.35 62.69 63.38 64.29 64.52 65.32 65.63 66.40 69.15 69.99 71.35 71.64 73.15 74.83 76.14 76.47
37.82 37.61 42.60 49.15 52.91 56.01 45.51 52.16 59.29 59.65 60.14 60.36 60.05 62.27 64.99 66.45 66.15 66.77 66.33 65.63 66.83 67.46 66.93 68.47 70.23 71.30 71.44 72.34 72.62 74.84 75.50 75.72
38.00 36.58 35.03 49.03 48.60 46.22 53.05 55.69 58.20 58.64 59.08 59.64 61.11 62.48 63.85 65.33 66.95 67.69 67.41 65.55 67.53 68.63 68.04 70.15 73.15 73.11 73.11 75.29 75.55 76.17 76.63 75.98
40.46 40.52 48.03 50.72 50.19 53.22 53.65 53.36 54.83 57.40 58.75 60.52 60.93 62.03 63.45 64.76 67.29 68.56 67.64 68.37 70.90 69.19 70.38 71.93 74.18 74.00 73.67 76.43 76.61 76.59 76.41 77.02
41.87 44.55 46.10 48.61 50.62 51.88 52.46 52.92 56.05 57.26 57.69 59.23 59.90 61.54 62.80 66.26 68.90 68.40 70.48 72.18 73.22 73.46 72.04 72.94 74.80 75.22 75.69 76.45 76.36 76.12 75.96 76.43
42.73 45.72 47.31 48.34 49.55 50.91 52.08 52.79 53.15 55.00 57.93 58.47 59.33 61.20 63.57 67.42 69.43 70.53 72.67 73.42 73.89 73.27 72.63 72.92 74.20 75.18 75.98 76.07 75.95 75.52 76.01 76.13
39.49 46.32 46.58 47.88 50.63 51.99 50.82 50.55 55.31 56.24 58.21 59.66 60.42 62.12 65.25 67.77 69.98 71.40 71.07 70.77 70.35 70.21 70.12 69.82 70.35 70.90 72.10 74.38 76.41 75.43 74.38 74.21
44.26 48.10 48.81 50.03 51.05 52.31 52.38 53.92 55.55 56.83 60.12 60.69 62.92 63.59 65.81 66.30 68.38 66.42 70.71 70.82 68.93 68.36 69.94 71.33 70.72 70.97 71.83 72.76 72.91 72.56 72.35 73.39

GFSFLT2_sfc_wetblb_042.txt.gz
Wetbulb
55.40 54.83 54.21 50.84 48.39 52.01 47.79 49.09 46.42 48.84 51.74 55.40 59.12 59.56 60.83 61.26 64.05 65.05 67.15 68.99 70.76 72.91 73.17 72.71 72.52 73.24 73.98 74.96 76.22 77.13 76.97 77.67
54.41 55.40 54.22 52.92 53.87 47.30 48.62 43.47 43.53 47.03 50.51 50.81 55.23 58.33 60.13 61.27 62.07 64.80 66.56 68.69 71.22 72.57 73.24 73.38 73.34 73.77 74.62 75.49 75.99 77.11 77.72 77.58
54.04 52.01 50.73 50.85 50.67 50.59 50.12 48.63 44.98 44.90 48.75 57.76 57.88 58.91 60.13 61.20 62.77 64.07 66.51 68.41 70.24 72.41 73.71 74.18 74.05 73.86 74.21 74.76 76.31 77.21 77.89 78.08
50.40 55.08 55.24 53.62 51.35 52.28 48.15 47.89 49.58 49.85 49.40 57.70 59.32 60.20 61.00 61.27 63.09 64.35 66.64 68.99 70.33 72.15 73.17 74.00 73.95 73.99 74.15 74.94 75.65 77.22 78.26 78.37
48.34 53.07 54.45 52.22 52.48 52.66 52.98 51.63 50.07 47.42 49.06 58.39 59.57 60.69 61.72 61.69 63.27 64.78 66.88 69.31 70.26 71.36 72.25 73.55 74.23 74.44 74.41 74.85 75.31 77.35 78.07 78.46
47.07 50.70 53.95 51.26 51.50 52.71 51.49 49.53 49.85 50.22 52.27 55.45 57.03 57.89 61.61 62.68 64.36 65.34 67.74 68.66 69.68 70.27 72.03 73.18 74.34 74.79 75.16 75.23 75.78 76.15 77.67 77.91
51.97 53.35 54.11 51.93 51.08 51.84 51.29 53.03 50.25 51.88 52.75 55.85 58.75 59.50 61.39 62.90 64.95 65.60 67.39 68.03 70.11 70.24 72.57 73.16 74.26 75.03 75.57 76.01 76.23 76.59 75.88 77.11
49.73 52.68 53.02 51.83 52.27 52.22 52.39 52.11 52.95 53.47 53.46 58.36 60.52 62.01 61.78 63.19 63.56 64.20 65.81 66.45 68.34 69.06 73.22 74.52 76.20 75.36 75.61 75.86 76.68 76.89 76.52 76.38
45.09 51.04 51.60 48.99 52.54 52.72 53.05 54.04 53.40 52.05 56.44 59.27 59.36 60.03 61.08 61.69 62.60 62.43 61.92 64.62 67.01 69.08 71.86 73.89 74.06 77.54 76.50 76.13 76.60 77.04 76.57 77.53
44.17 48.29 41.75 52.34 56.58 55.62 54.29 54.75 55.57 56.37 58.19 60.41 61.03 62.38 62.79 62.91 62.46 64.21 63.92 65.05 69.08 65.16 68.53 71.67 69.15 69.44 74.35 77.42 77.13 76.54 77.96 76.95
42.69 44.21 49.23 51.76 54.25 54.04 53.02 53.41 56.61 57.07 58.05 58.58 60.07 60.72 61.51 62.54 62.80 62.72 64.83 66.96 66.78 67.52 68.12 74.55 73.13 74.71 73.89 74.55 76.81 77.07 76.20 77.93
43.68 41.36 41.31 51.03 55.00 56.94 56.66 49.76 58.14 57.53 57.20 57.63 58.44 54.29 60.62 66.33 66.63 66.86 67.97 69.58 70.64 70.98 70.89 71.25 73.65 72.66 74.89 73.96 75.30 75.63 76.19 76.38
41.06 40.99 46.88 52.73 53.94 56.52 48.42 50.07 58.55 59.99 60.28 58.84 58.80 61.93 64.40 65.50 65.68 67.12 68.33 69.62 71.22 71.90 71.68 72.58 73.37 74.03 74.48 75.33 72.50 75.70 77.21 77.52
41.18 40.09 39.36 52.16 52.33 49.39 54.72 56.22 56.01 57.05 57.69 58.87 60.74 61.62 61.96 62.58 64.36 65.57 66.74 68.11 71.05 71.38 72.50 73.44 73.54 74.21 75.87 75.27 79.38 80.55 77.88 78.12
42.84 43.24 53.20 53.23 52.30 53.99 54.41 54.37 54.81 54.97 55.38 56.82 57.49 57.53 57.94 60.37 63.13 64.22 66.43 67.69 70.30 72.44 72.25 73.50 73.80 77.35 76.75 77.18 81.00 80.96 81.18 80.32
43.45 46.57 48.71 50.30 52.25 52.89 53.31 52.80 53.75 54.20 54.19 54.57 54.94 55.79 55.99 58.96 61.52 63.40 65.77 67.24 68.86 71.78 74.39 75.99 80.42 77.36 79.22 79.58 79.91 80.93 79.60 81.04
42.81 46.51 48.62 49.59 50.71 51.66 52.41 53.10 53.09 53.93 54.04 54.06 54.54 54.80 55.77 59.11 62.13 63.49 66.38 67.45 69.84 72.21 75.85 76.81 77.97 78.83 78.98 80.11 79.89 79.26 80.02 79.40
39.49 46.31 46.46 47.91 51.14 52.76 52.28 52.16 53.50 53.63 53.98 55.02 55.43 56.37 58.06 58.77 61.57 64.45 66.24 67.67 70.45 74.51 74.71 75.49 75.33 76.49 77.30 78.39 79.83 79.73 78.20 77.45
41.72 45.73 47.32 48.66 50.35 51.36 51.85 53.01 53.70 53.84 55.44 54.44 55.81 56.28 57.26 57.71 59.30 61.42 65.44 67.58 70.47 73.64 74.01 74.35 74.36 74.14 75.00 76.72 77.77 79.15 78.45 78.26

GFSFLT2_sfc_wetblb_045.txt.gz
Wetbulb
55.87 54.04 51.61 48.01 45.03 46.80 39.02 41.65 38.37 41.70 45.35 50.43 53.76 54.60 55.36 58.35 64.93 65.10 65.63 67.91 68.38 68.78 68.93 68.89 69.71 71.02 71.53 72.38 72.22 73.07 73.51 73.96
54.62 56.13 52.87 48.79 49.21 42.30 42.87 34.62 35.38 41.49 43.41 45.57 49.12 51.38 54.12 55.05 60.68 64.06 66.61 68.36 68.92 68.96 69.22 69.61 70.11 71.42 72.02 72.91 72.85 73.21 73.71 74.34
50.35 50.27 49.24 46.87 45.57 45.89 42.69 40.88 36.20 36.69 42.54 50.01 51.23 52.96 53.51 55.60 57.10 62.11 65.69 68.03 69.35 69.66 70.15 69.99 70.38 71.04 71.60 72.28 73.44 73.83 74.43 74.18
43.99 50.91 54.05 50.88 47.37 46.04 42.28 38.38 40.80 39.44 43.13 53.45 53.39 55.04 55.37 56.40 57.35 61.19 65.22 67.83 69.77 70.06 70.47 70.04 69.78 70.38 71.00 71.99 73.49 74.35 74.93 74.77
42.02 46.06 49.86 49.16 48.85 48.32 45.13 43.81 40.13 39.84 42.43 54.05 54.56 55.10 56.17 57.20 57.82 59.26 63.89 66.66 69.21 70.13 70.01 70.07 69.92 69.99 70.63 71.41 72.94 74.14 74.83 74.97
39.26 43.22 46.54 46.61 49.03 48.59 46.58 43.09 42.48 44.96 43.67 51.20 53.38 54.15 55.71 56.90 59.08 58.98 63.26 65.94 68.28 69.57 70.06 70.65 70.49 70.32 70.45 71.25 72.47 74.28 74.69 75.10
46.29 48.78 49.67 49.62 49.01 49.04 46.47 46.33 44.94 45.85 46.78 50.48 52.52 55.31 56.85 58.09 59.37 61.12 61.07 65.40 67.18 68.89 69.69 70.57 70.69 70.58 71.01 71.47 72.39 73.15 74.46 75.03
43.89 49.41 49.99 49.48 51.08 50.27 49.41 48.88 48.16 48.32 47.11 53.86 55.67 57.54 57.74 57.99 58.98 59.24 60.94 63.60 63.85 66.31 68.83 70.24 71.17 71.14 71.39 71.58 71.99 72.95 73.52 74.39
37.71 47.18 48.82 44.42 49.80 50.12 49.84 50.96 49.63 46.44 49.22 54.43 54.23 56.78 56.25 56.67 57.63 57.20 57.67 59.00 61.60 63.12 65.09 69.30 71.42 72.34 72.14 72.47 73.01 72.69 72.62 73.29
37.54 43.79 36.20 47.13 53.87 54.07 51.35 51.76 51.66 50.95 55.22 55.18 55.80 57.68 58.10 57.94 57.17 58.30 60.30 60.70 60.26 63.24 62.83 63.10 67.63 72.69 73.02 73.28 72.99 73.01 72.75 72.94
35.30 40.11 43.81 49.03 50.01 49.90 49.60 50.03 54.79 55.27 56.24 57.79 59.37 60.42 59.98 62.89 63.42 63.15 63.40 64.49 65.06 65.94 66.10 66.18 66.00 64.92 70.60 73.09 73.14 73.01 73.25 73.48
38.85 37.50 38.22 44.22 50.08 51.44 52.96 44.23 52.98 54.86 57.42 57.07 59.13 53.86 56.06 61.45 62.85 62.78 64.35 65.37 66.41 66.24 66.63 66.18 66.29 67.27 68.42 70.64 72.68 72.21 72.84 74.12
37.18 36.50 41.77 45.27 49.34 53.65 44.11 44.66 51.57 51.81 53.69 54.29 52.29 54.55 56.36 60.15 61.13 63.06 63.52 63.95 65.42 66.95 67.64 66.98 67.62 66.78 67.24 66.27 67.90 71.95 73.23 73.39
36.21 36.60 34.50 47.96 48.15 42.95 48.88 51.56 51.59 50.78 51.33 51.86 52.53 53.14 53.88 56.18 58.77 60.05 61.78 63.44 64.63 64.54 66.05 68.26 68.26 66.55 64.11 67.33 67.86 72.09 72.47 72.81
37.51 37.03 45.91 48.44 47.46 49.97 50.45 49.09 48.95 49.35 50.06 50.78 51.39 51.83 52.66 52.64 57.09 58.82 59.99 62.75 64.09 64.11 66.58 67.83 70.12 67.74 65.78 67.93 72.26 71.82 72.32 73.12
37.57 41.27 43.29 46.85 47.36 48.14 48.06 48.68 49.55 49.66 50.01 50.59 49.60 51.37 51.33 52.13 56.52 57.51 60.30 61.17 63.38 64.73 66.63 70.14 73.64 73.03 72.73 73.72 73.20 72.44 73.42 72.40
36.69 40.40 41.62 45.63 45.18 46.41 47.16 48.26 49.91 51.26 51.16 50.15 50.41 50.91 51.87 52.47 54.39 55.00 56.01 61.40 62.14 64.47 65.53 70.15 71.32 73.77 73.64 74.30 73.97 73.93 73.90 75.41
33.77 39.04 38.85 40.09 43.77 45.63 44.77 45.70 47.74 49.36 50.12 52.45 52.14 50.21 52.46 51.99 52.81 53.21 53.73 53.93 60.82 62.75 65.11 70.28 69.87 70.62 71.33 72.32 72.82 73.15 74.20 74.62
38.53 42.78 42.76 43.07 44.49 45.97 45.18 46.28 47.30 48.98 50.17 50.42 51.32 52.35 51.39 51.05 51.80 53.42 53.59 53.42 60.18 60.89 65.13 67.60 69.86 69.33 70.25 70.76 72.39 71.66 70.46 73.72

GFSFLT2_sfc_wetblb_048.txt.gz
Wetbulb
52.06 53.25 52.58 47.69 45.11 46.74 38.00 36.20 37.13 40.69 43.75 49.25 51.53 51.65 61.81 63.32 65.18 64.76 64.90 65.65 67.04 67.62 67.95 68.16 68.61 69.84 70.23 69.78 69.96 71.54 71.83 71.88
50.99 52.18 52.96 49.53 49.21 40.61 36.94 34.79 30.76 37.29 39.53 44.37 47.39 48.98 51.09 62.05 63.74 65.13 65.44 66.82 66.60 67.42 68.06 68.56 68.92 69.95 71.00 70.80 70.12 70.76 72.19 72.10
46.25 44.79 47.83 44.91 45.98 43.79 43.34 37.26 36.67 32.62 40.39 46.08 47.81 49.57 50.01 56.26 63.93 64.69 65.57 66.91 66.33 67.80 68.51 68.80 69.28 69.98 70.59 70.96 70.63 70.93 71.49 72.63
40.45 47.66 48.49 52.44 43.73 43.47 40.73 35.63 36.16 36.43 41.18 50.00 50.31 51.24 51.58 52.85 63.02 65.11 66.16 66.56 66.72 68.17 68.34 68.38 68.63 69.54 69.92 71.15 70.93 71.39 72.17 72.29
36.51 39.52 44.27 42.89 48.68 43.89 41.21 39.47 36.89 39.07 41.76 48.77 49.74 51.15 53.28 53.67 54.73 64.20 65.66 66.06 66.84 68.03 67.83 68.16 68.20 69.29 70.09 70.80 71.58 71.80 72.24 72.31
30.63 35.79 40.96 41.17 45.59 45.72 44.37 40.00 39.57 40.88 42.34 46.59 49.62 50.45 54.14 52.62 54.65 59.18 64.98 65.56 67.24 67.74 67.86 68.31 68.45 68.77 69.88 70.60 72.29 72.41 72.77 72.69
35.98 39.11 41.73 42.55 46.56 46.91 43.38 43.69 41.84 43.49 43.37 46.51 47.82 51.27 52.61 53.49 55.31 60.24 64.49 66.40 67.59 67.76 68.09 68.44 68.34 68.66 69.79 70.75 71.49 73.07 72.97 72.92
31.95 41.83 44.19 43.95 49.04 48.80 46.70 46.58 44.96 44.44 44.30 48.35 51.82 54.58 55.26 56.70 57.88 59.94 63.45 66.61 67.95 68.40 68.59 68.69 68.76 68.67 69.33 69.95 71.02 72.41 72.68 72.96
30.40 42.47 45.54 41.86 43.93 48.00 47.34 46.98 46.17 43.70 46.09 51.28 52.99 55.76 56.93 53.43 55.93 57.58 59.95 65.55 67.85 68.43 68.84 69.34 69.39 69.50 68.88 69.65 70.76 71.43 72.43 72.90
31.11 38.17 34.88 43.40 47.18 47.52 47.84 48.12 48.74 50.95 52.60 54.50 57.80 58.76 59.38 60.85 61.25 61.60 62.34 62.55 62.46 62.59 64.47 68.25 70.16 70.34 70.16 70.13 70.15 70.47 70.81 72.76
32.00 36.38 42.19 43.33 44.35 43.88 41.91 43.71 47.80 48.95 54.88 58.36 58.83 58.48 57.32 59.88 61.36 61.27 62.50 63.21 63.20 63.91 63.87 64.56 66.02 69.50 70.58 70.25 70.21 70.10 70.29 70.70
32.88 34.86 34.52 39.76 45.79 49.01 49.65 38.41 47.68 48.58 48.97 52.49 55.65 49.48 51.65 56.66 60.32 60.77 62.28 63.16 63.95 65.59 66.66 64.97 64.25 65.72 68.82 70.38 70.62 70.27 70.62 71.02
34.74 36.78 39.44 42.14 45.79 50.27 38.72 40.80 47.57 48.18 48.78 48.19 46.33 48.04 50.78 56.70 57.60 60.46 61.32 62.60 63.28 64.17 64.99 65.84 66.33 63.35 64.74 67.54 69.59 71.58 71.84 72.18
33.34 34.79 33.05 44.32 44.65 38.73 41.42 45.90 46.80 47.40 47.93 47.32 48.10 50.32 51.20 55.14 55.73 58.14 59.60 61.63 63.76 64.69 65.72 67.21 68.29 64.69 62.99 63.78 65.47 68.93 71.57 71.67
34.23 35.61 43.57 44.93 45.53 47.49 46.12 44.37 44.15 45.47 47.72 47.95 48.00 49.15 50.92 52.34 52.94 53.50 57.37 58.70 62.24 63.34 65.81 68.83 72.58 67.54 69.17 70.37 70.66 71.68 68.55 70.00
32.95 37.37 39.12 41.59 44.97 44.88 44.77 44.14 44.63 45.99 46.90 48.85 47.34 49.61 49.94 51.00 51.30 51.82 52.79 53.16 58.83 61.83 62.97 65.50 70.23 71.53 71.66 71.92 72.25 72.28 69.92 69.74
34.83 36.40 39.77 42.76 43.81 43.97 44.80 45.92 45.67 46.29 46.30 48.24 48.66 48.38 49.60 49.37 49.86 50.53 51.22 52.68 55.94 59.55 61.44 63.21 68.39 69.08 70.05 70.28 71.37 71.04 71.76 72.37
33.83 39.09 39.20 39.55 42.55 45.10 44.83 44.82 45.80 45.31 45.30 47.00 49.04 48.34 50.05 49.01 49.39 50.14 50.90 51.99 53.79 57.57 61.43 63.02 65.08 68.08 68.90 69.34 70.35 69.76 69.36 70.57
42.79 43.79 42.63 43.06 43.98 45.70 46.09 46.43 47.04 47.00 46.53 45.66 48.45 49.02 49.15 48.29 48.58 51.21 50.34 52.22 55.11 58.18 60.75 62.03 64.65 67.43 68.13 68.44 68.48 68.53 68.12 68.17